Tioga Municipal Airport, ND

12:36 PM CDT on October 19, 2017 (GMT -0500)
Tioga Municipal Airport

Weather History for KD60 - March, 2014

Change the Weather History Date:

Sunday, March 9, 2014

  Actual Average (KISN) Record (KISN)
Temperature  
Mean Temperature 40 °F -  
Max Temperature 46 °F 38 °F 65 °F (2012)
Min Temperature 35 °F 15 °F -28 °F (2002)
Degree Days  
Heating Degree Days 24    
Moisture  
Dew Point 35 °F    
Average Humidity 81    
Maximum Humidity 100    
Minimum Humidity 66    
Precipitation  
Precipitation 0.00 in - - ()
Sea Level Pressure  
Sea Level Pressure 29.66 in    
Wind  
Wind Speed 14 mph (West)    
Max Wind Speed 20 mph    
Max Gust Speed 29 mph    
Visibility 10 miles    
Events      
Averages and records for this station are not official NWS values.
T = Trace of Precipitation, MM = Missing Value Source: NWS Daily Summary

Daily Weather History Graph

Daily Weather History Graph

Search for Another Location

Airport or City:

Trip Planner

Search our weather history database for the weather conditions in past years. The results will help you decide how hot, cold, wet, or windy it might be!

Date:

Astronomy

Mar. 09, 2014 Rise Set
Actual Time 8:16 AM CDT 7:48 PM CDT
Civil Twilight 7:45 AM CDT 8:19 PM CDT
Nautical Twilight 7:09 AM CDT 8:55 PM CDT
Astronomical Twilight 6:32 AM CDT 9:32 PM CDT
Moon 1:22 PM CDT (3/9) 4:04 AM CDT (3/9)
Length of Visible Light 12h 33m
Length of Day
11h 31m
First Quarter, 61% of the Moon is Illuminated
Mar 9
First Quarter
Mar 16
Full
Mar 23
Last Quarter
Mar 30
New
Apr 7
First Quarter

Hourly Weather History & Observations

Time (CDT) Temp. Windchill Dew Point Humidity Pressure Visibility Wind Dir Wind Speed Gust Speed Precip Events Conditions
12:15 AM 39.2 °F 30.2 °F 33.8 °F 81% 29.74 in 10.0 mi WSW 17.3 mph 21.9 mph N/A   Clear
12:35 AM 39.2 °F 30.2 °F 33.8 °F 81% 29.74 in 10.0 mi WSW 17.3 mph - N/A   Partly Cloudy
12:55 AM 37.4 °F 29.3 °F 33.8 °F 87% 29.74 in 10.0 mi WSW 12.7 mph - N/A   Scattered Clouds
1:15 AM 37.4 °F 29.3 °F 33.8 °F 87% 29.73 in 10.0 mi West 12.7 mph - N/A   Partly Cloudy
1:35 AM 37.4 °F 30.8 °F 33.8 °F 87% 29.72 in 10.0 mi West 9.2 mph - N/A   Clear
1:55 AM 35.6 °F 27.5 °F 33.8 °F 93% 29.72 in 10.0 mi West 11.5 mph - N/A   Clear
3:15 AM 35.6 °F 27.1 °F 33.8 °F 93% 29.71 in 10.0 mi WSW 12.7 mph - N/A   Clear
3:35 AM 37.4 °F 28.9 °F 32.0 °F 81% 29.71 in 10.0 mi WSW 13.8 mph - N/A   Clear
3:55 AM 35.6 °F 28.0 °F 32.0 °F 87% 29.70 in 10.0 mi WSW 10.4 mph - N/A   Clear
4:15 AM 35.6 °F 27.1 °F 32.0 °F 87% 29.69 in 10.0 mi West 12.7 mph - N/A   Clear
4:35 AM 37.4 °F 29.8 °F 32.0 °F 81% 29.69 in 10.0 mi West 11.5 mph - N/A   Clear
4:55 AM 35.6 °F 27.1 °F 32.0 °F 87% 29.69 in 10.0 mi West 12.7 mph - N/A   Clear
5:15 AM 35.6 °F 26.2 °F 32.0 °F 87% 29.68 in 10.0 mi West 15.0 mph - N/A   Clear
5:35 AM 35.6 °F 25.5 °F 32.0 °F 87% 29.68 in 10.0 mi WSW 17.3 mph - N/A   Clear
5:55 AM 35.6 °F 26.2 °F 32.0 °F 87% 29.68 in 10.0 mi West 15.0 mph - N/A   Clear
6:15 AM 35.6 °F 26.6 °F 32.0 °F 87% 29.67 in 10.0 mi WSW 13.8 mph - N/A   Clear
6:35 AM 35.6 °F 27.1 °F 32.0 °F 87% 29.67 in 10.0 mi WSW 12.7 mph - N/A   Clear
6:55 AM 35.6 °F 27.1 °F 33.8 °F 93% 29.68 in 10.0 mi WSW 12.7 mph - N/A   Clear
7:15 AM 35.6 °F 26.6 °F 32.0 °F 87% 29.68 in 10.0 mi WSW 13.8 mph - N/A   Clear
7:35 AM 37.4 °F 28.9 °F 32.0 °F 81% 29.67 in 10.0 mi West 13.8 mph - N/A   Clear
7:55 AM 37.4 °F 28.2 °F 32.0 °F 81% 29.67 in 10.0 mi West 16.1 mph - N/A   Clear
8:15 AM 37.4 °F 28.5 °F 32.0 °F 81% 29.67 in 10.0 mi West 15.0 mph - N/A   Clear
8:35 AM 37.4 °F 28.5 °F 32.0 °F 81% 29.66 in 10.0 mi West 15.0 mph - N/A   Clear
8:55 AM 37.4 °F 27.8 °F 32.0 °F 81% 29.66 in 10.0 mi WSW 17.3 mph - N/A   Clear
9:15 AM 37.4 °F 27.8 °F 32.0 °F 81% 29.66 in 10.0 mi WSW 17.3 mph - N/A   Clear
9:35 AM 37.4 °F 28.9 °F 32.0 °F 81% 29.66 in 10.0 mi West 13.8 mph - N/A   Clear
9:55 AM 37.4 °F 28.2 °F 32.0 °F 81% 29.66 in 10.0 mi West 16.1 mph - N/A   Clear
10:15 AM 39.2 °F 31.2 °F 32.0 °F 75% 29.66 in 10.0 mi West 13.8 mph - N/A   Clear
10:35 AM 37.4 °F 29.3 °F 32.0 °F 81% 29.66 in 10.0 mi WSW 12.7 mph - N/A   Clear
10:55 AM 37.4 °F 29.3 °F 32.0 °F 81% 29.66 in 10.0 mi West 12.7 mph - N/A   Clear
11:15 AM 39.2 °F 32.0 °F 32.0 °F 75% 29.65 in 10.0 mi West 11.5 mph - N/A   Clear
11:35 AM 39.2 °F 32.5 °F 32.0 °F 75% 29.65 in 10.0 mi WSW 10.4 mph - N/A   Clear
11:55 AM 39.2 °F 32.0 °F 32.0 °F 75% 29.66 in 10.0 mi WSW 11.5 mph - N/A   Clear
12:15 PM 39.2 °F 32.5 °F 32.0 °F 75% 29.66 in 10.0 mi WSW 10.4 mph 16.1 mph N/A   Mostly Cloudy
12:35 PM 39.2 °F 32.0 °F 32.0 °F 75% 29.64 in 10.0 mi SW 11.5 mph - N/A   Mostly Cloudy
12:55 PM 39.2 °F 32.5 °F 32.0 °F 75% 29.64 in 10.0 mi SW 10.4 mph - N/A   Scattered Clouds
1:15 PM 39.2 °F 33.0 °F 32.0 °F 75% 29.64 in 10.0 mi SW 9.2 mph - N/A   Scattered Clouds
1:35 PM 39.2 °F 33.0 °F 32.0 °F 75% 29.64 in 10.0 mi SW 9.2 mph - N/A   Overcast
1:55 PM 39.2 °F 32.5 °F 32.0 °F 75% 29.63 in 10.0 mi WSW 10.4 mph - N/A   Overcast
2:15 PM 41.0 °F 33.1 °F 33.8 °F 76% 29.63 in 10.0 mi SW 15.0 mph - N/A   Overcast
2:35 PM 41.0 °F 33.5 °F 33.8 °F 76% 29.62 in 10.0 mi SW 13.8 mph - N/A   Mostly Cloudy
2:55 PM 42.8 °F 37.0 °F 33.8 °F 70% 29.61 in 10.0 mi SW 10.4 mph - N/A   Partly Cloudy
3:15 PM 41.0 °F 35.8 °F 35.6 °F 81% 29.60 in 10.0 mi WSW 8.1 mph - N/A   Clear
3:35 PM 44.6 °F 40.2 °F 35.6 °F 71% 29.60 in 10.0 mi West 8.1 mph - N/A   Clear
3:55 PM 44.6 °F 39.2 °F 35.6 °F 71% 29.59 in 10.0 mi West 10.4 mph - N/A   Clear
4:15 PM 44.6 °F 38.4 °F 35.6 °F 71% 29.60 in 10.0 mi West 12.7 mph - N/A   Clear
4:35 PM 46.4 °F 40.1 °F 35.6 °F 66% 29.61 in 10.0 mi West 15.0 mph - N/A   Clear
4:55 PM 46.4 °F 40.4 °F 35.6 °F 66% 29.61 in 10.0 mi West 13.8 mph 18.4 mph N/A   Clear
5:15 PM 46.4 °F 41.1 °F 37.4 °F 71% 29.62 in 10.0 mi WNW 11.5 mph - N/A   Clear
5:35 PM 46.4 °F 40.7 °F 37.4 °F 71% 29.62 in 10.0 mi West 12.7 mph - N/A   Clear
5:55 PM 46.4 °F 41.5 °F 37.4 °F 71% 29.62 in 10.0 mi West 10.4 mph - N/A   Clear
6:15 PM 46.4 °F 41.9 °F 37.4 °F 71% 29.63 in 10.0 mi West 9.2 mph - N/A   Clear
6:35 PM 44.6 °F 37.4 °F 37.4 °F 76% 29.62 in 10.0 mi West 16.1 mph - N/A   Clear
6:55 PM 44.6 °F 37.8 °F 37.4 °F 76% 29.63 in 10.0 mi West 15.0 mph - N/A   Clear
7:15 PM 44.6 °F 37.8 °F 37.4 °F 76% 29.63 in 10.0 mi WNW 15.0 mph - N/A   Clear
7:35 PM 44.6 °F 37.8 °F 37.4 °F 76% 29.63 in 10.0 mi West 15.0 mph - N/A   Clear
7:55 PM 42.8 °F 35.1 °F 37.4 °F 81% 29.63 in 10.0 mi West 16.1 mph - N/A   Clear
8:15 PM 41.0 °F 33.1 °F 37.4 °F 87% 29.64 in 10.0 mi WNW 15.0 mph - N/A   Clear
8:35 PM 42.8 °F 34.8 °F 37.4 °F 81% 29.65 in 10.0 mi WNW 17.3 mph - N/A   Clear
8:55 PM 44.6 °F 36.9 °F 37.4 °F 76% 29.65 in 10.0 mi WNW 18.4 mph 28.8 mph N/A   Clear
9:15 PM 44.6 °F 37.8 °F 37.4 °F 76% 29.66 in 10.0 mi WNW 15.0 mph - N/A   Clear
9:35 PM 42.8 °F 34.5 °F 37.4 °F 81% 29.66 in 10.0 mi WNW 18.4 mph - N/A   Clear
9:55 PM 42.8 °F 34.8 °F 37.4 °F 81% 29.66 in 10.0 mi WNW 17.3 mph 24.2 mph N/A   Clear
10:15 PM 42.8 °F 34.3 °F 39.2 °F 87% 29.67 in 10.0 mi West 19.6 mph 24.2 mph N/A   Clear
10:35 PM 42.8 °F 34.8 °F 39.2 °F 87% 29.65 in 10.0 mi WNW 17.3 mph - N/A   Clear
10:55 PM 41.0 °F 32.8 °F 39.2 °F 93% 29.66 in 10.0 mi West 16.1 mph - N/A   Clear
11:15 PM 41.0 °F 33.5 °F 39.2 °F 93% 29.66 in 10.0 mi West 13.8 mph - N/A   Clear
11:35 PM 41.0 °F 33.5 °F 39.2 °F 93% 29.66 in 10.0 mi West 13.8 mph - N/A   Clear
11:55 PM 41.0 °F 34.3 °F 39.2 °F 93% 29.67 in 10.0 mi West 11.5 mph - N/A   Clear
12:15 AM 39.2 °F 32.0 °F 39.2 °F 100% 29.68 in 10.0 mi West 11.5 mph - N/A   Clear
12:35 AM 37.4 °F 30.3 °F 37.4 °F 100% 29.67 in 10.0 mi West 10.4 mph - N/A   Clear
12:55 AM 37.4 °F 28.9 °F 37.4 °F 100% 29.67 in 10.0 mi West 13.8 mph - N/A   Scattered Clouds